Torna al catalogo

STARLINK-5376

AttivoComunicazioniVLEO
NORAD 56142·PAYLOAD·🇺🇸 United States

Lanciato Mar 29, 2023 da Cape Canaveral Space Force Station

Loading…

Prossimi Passaggi (prossime 24 ore)

TLE

AggiornatoSource: CelesTrak SupGP

Epoca: Sep 14, 2026, 22:25 UTC

1 56142C 23046BB  26257.93451389 -.00035763  00000+0 -12954-2 0  2572
2 56142  43.0021 157.9237 0001516 270.1804 186.3641 15.27593596    11

Traccia STARLINK-5376 in tempo reale con AllMySat

Download on the App Store